Temp
11 12 11 13 14 13 13 15 14 16 14 16 16 16 15 15 14 14 13 12 12 10 9 8 8 8 9 9 8 8 7 7 7 6 6 6 5 5 4 4 3 3 2 2
13 12 12 15 15 16 15 13 12 13 13 18 16 14 14 14 14 14 14 13 12 11 9 8 7 7 8 8 8 8 7 6 6 5 5 5 4 4 4 3 3 2 2 1
14 15 14 15 15 14 11 11 12 12 16 16 16 16 13 13 15 15 14 13 11 10 9 8 7 8 7 7 7 7 6 5 5 5 5 4 4 4 3 3 2 2 1 0
13 14 15 18 16 14 13 15 15 18 16 16 14 10 9 10 13 13 13 12 11 9 8 8 7 7 8 7 7 6 5 5 5 4 4 3 3 3 2 2 1 1 0 -0
13 13 16 18 17 16 16 17 17 17 13 12 12 13 11 8 11 11 10 10 9 8 7 7 7 7 7 6 6 5 5 4 4 4 3 3 3 2 2 1 1 0 -0 -1
10 13 16 17 17 17 17 16 16 15 14 13 13 14 11 8 8 7 7 7 6 6 6 6 6 7 6 5 5 4 4 4 4 3 3 2 2 1 1 0 -0 -1 -1 -1
12 13 13 15 17 16 18 16 15 14 14 12 13 11 8 6 6 6 6 5 6 6 5 5 6 6 5 4 4 4 4 3 3 3 2 2 1 1 0 -0 -1 -1 -2 -2
13 13 12 16 17 18 15 13 12 11 9 8 8 7 6 6 6 6 5 5 5 4 4 5 6 6 4 4 3 3 3 3 2 2 2 1 1 -0 -1 -1 -2 -2 -2 -3
12 13 13 14 15 14 13 12 11 9 8 8 8 7 7 5 5 4 4 4 4 4 4 5 5 5 4 3 3 3 2 2 2 1 1 0 -1 -1 -2 -2 -3 -3 -3 -3
15 14 14 14 14 13 13 10 9 8 8 9 7 7 5 5 5 4 4 3 4 3 2 2 4 4 4 3 2 2 2 1 1 0 -0 -1 -1 -2 -3 -3 -3 -3 -3 -4
13 13 13 13 13 10 8 8 8 7 8 7 7 6 5 5 4 4 3 3 4 3 2 2 3 3 2 2 2 1 1 0 -0 -1 -1 -2 -2 -3 -3 -3 -3 -3 -3 -4
14 13 13 12 10 9 9 8 8 8 6 6 7 6 5 5 4 4 3 3 3 2 2 2 2 2 1 1 1 1 0 -0 -1 -2 -2 -2 -3 -3 -3 -4 -4 -4 -4 -4
15 12 10 9 8 9 8 8 8 7 7 6 5 5 5 4 4 4 4 3 2 2 2 2 1 1 1 1 0 0 -1 -1 -2 -2 -3 -3 -3 -4 -5 -4 -4 -4 -4 -4
9 10 9 10 9 8 7 7 6 5 5 5 4 4 4 3 3 2 2 3 3 2 1 1 1 0 0 -0 -0 -1 -1 -2 -2 -3 -3 -3 -4 -4 -4 -5 -6 -5 -5 -5
9 10 9 7 6 5 5 5 5 4 3 2 3 2 2 1 0 1 2 2 2 1 1 1 0 -1 -1 -1 -1 -1 -2 -2 -3 -3 -4 -4 -4 -4 -5 -5 -6 -6 -6 -6
5 6 7 6 5 4 4 4 4 3 2 1 1 1 1 1 1 1 1 2 1 -1 0 0 -0 -1 -1 -1 -2 -2 -3 -3 -4 -4 -4 -4 -5 -5 -5 -6 -6 -6 -7 -7
6 4 4 4 4 4 5 4 4 3 1 1 0 0 0 -0 -0 -0 0 1 1 0 -0 -0 -1 -1 -2 -2 -2 -3 -3 -4 -5 -5 -5 -5 -5 -6 -6 -6 -7 -7 -7 -7
7 6 7 6 5 4 3 2 2 2 2 0 0 -0 -1 -1 -1 -2 -1 -1 -1 -1 -1 -1 -2 -2 -2 -3 -3 -4 -4 -5 -5 -5 -6 -6 -6 -6 -7 -7 -7 -7 -8 -8
6 5 5 5 4 3 2 2 1 1 0 0 -0 -1 -0 -1 -1 -1 -1 -1 -2 -3 -3 -2 -3 -3 -3 -4 -4 -4 -5 -5 -6 -6 -6 -6 -7 -7 -7 -8 -8 -8 -9 -9
4 4 3 3 3 3 1 1 1 0 0 1 -0 -1 -2 -2 -1 -2 -2 -3 -3 -2 -3 -3 -3 -3 -4 -4 -5 -5 -6 -6 -6 -7 -7 -7 -8 -8 -8 -9 -9 -9 -9 -9
3 3 3 3 2 1 1 1 0 -1 -0 0 -1 -2 -2 -2 -2 -2 -3 -5 -4 -3 -3 -3 -4 -4 -5 -5 -5 -6 -6 -7 -7 -8 -8 -8 -9 -9 -9 -9 -10 -10 -10 -10
4 4 3 2 1 -1 -0 0 -0 -0 -1 -1 -2 -2 -3 -4 -3 -3 -3 -3 -4 -4 -4 -4 -5 -5 -5 -6 -6 -7 -7 -8 -8 -8 -9 -9 -9 -9 -9 -10 -10 -11 -11 -11
4 3 2 1 -0 -2 -1 -1 -1 -1 -2 -2 -3 -3 -4 -4 -4 -5 -6 -5 -5 -5 -5 -5 -6 -6 -6 -7 -7 -8 -8 -9 -9 -9 -9 -9 -10 -10 -10 -10 -11 -11 -12 -11
2 1 -1 -2 -2 -2 -4 -4 -2 -2 -2 -3 -3 -3 -4 -5 -5 -5 -5 -5 -6 -5 -6 -6 -7 -7 -8 -8 -8 -8 -9 -9 -10 -10 -10 -10 -10 -11 -11 -12 -12 -12 -12 -12
-1 -2 -2 -2 -3 -5 -6 -5 -5 -5 -5 -5 -5 -4 -4 -4 -4 -6 -6 -6 -7 -6 -7 -7 -8 -8 -8 -8 -9 -9 -10 -10 -10 -10 -11 -11 -12 -12 -12 -12 -13 -13 -12 -12
-1 -2 -3 -3 -4 -5 -5 -5 -6 -6 -6 -7 -6 -6 -5 -5 -6 -6 -7 -7 -7 -7 -8 -8 -8 -9 -9 -9 -10 -10 -10 -11 -11 -11 -12 -12 -12 -12 -13 -13 -13 -13 -13 -13
-3 -4 -5 -5 -5 -5 -5 -6 -6 -6 -6 -7 -7 -7 -6 -7 -7 -7 -7 -8 -8 -8 -8 -9 -9 -9 -9 -10 -10 -11 -11 -11 -12 -12 -12 -12 -12 -12 -13 -13 -13 -13 -13 -12
Height
694 684 691 683 683 696 699 696 702 689 704 681 673 663 667 673 682 690 697 705 710 717 724 731 737 743 749 755 759 763 767 771 773 776 778 779 780 781 781 780 779 777 774 772
671 667 678 666 675 678 686 700 705 704 703 670 664 666 672 674 680 688 694 701 709 716 723 730 736 742 749 754 759 763 767 770 773 776 777 779 780 780 779 778 777 775 772 770
668 660 667 670 668 676 696 700 704 710 681 658 663 667 674 677 678 683 689 698 706 713 721 728 735 741 748 754 759 763 767 770 773 775 777 778 779 778 777 777 775 773 771 768
673 669 672 650 655 670 679 677 680 662 659 661 667 682 684 683 679 683 689 697 706 714 722 729 736 742 748 754 759 763 767 770 773 775 777 777 777 777 777 775 774 771 769 766
679 678 664 650 657 666 668 663 660 660 668 671 676 674 684 688 683 687 691 697 704 712 720 729 736 743 749 755 760 764 768 770 773 775 775 776 776 776 775 774 772 769 767 763
704 687 670 656 652 652 651 669 655 659 666 670 671 682 690 693 691 693 697 702 708 716 724 731 739 744 750 756 761 764 768 771 773 774 774 775 775 775 774 772 769 767 764 760
692 688 679 657 651 652 663 666 652 658 660 668 670 679 690 697 698 700 703 708 714 720 727 734 741 746 752 757 761 765 768 770 772 773 774 775 774 774 772 770 767 764 760 756
686 687 690 654 652 655 659 658 661 664 671 680 683 688 696 700 704 706 710 716 720 726 734 740 745 748 754 758 762 765 768 770 772 773 773 773 773 772 770 768 764 760 756 752
677 674 661 659 655 657 658 661 666 670 675 677 686 694 700 707 710 714 718 722 728 732 738 744 748 751 755 760 763 766 768 770 772 772 773 773 772 770 767 764 760 756 753 750
663 658 658 660 659 660 660 665 670 673 677 679 689 698 705 711 716 719 724 728 732 737 742 747 751 755 757 761 764 766 769 770 772 772 773 772 770 767 764 761 758 755 752 748
664 660 661 661 661 666 670 672 675 680 682 688 693 703 708 714 719 723 728 732 736 740 744 749 753 756 760 763 765 767 769 770 771 771 771 769 767 765 762 760 758 754 751 747
656 651 652 656 662 667 670 676 679 682 691 697 698 703 711 717 721 725 730 735 739 744 748 752 755 758 762 764 766 767 769 770 770 770 768 767 765 762 761 759 756 754 749 745
646 649 657 660 666 669 673 679 683 687 693 699 706 708 713 719 725 729 733 737 741 745 749 753 757 760 763 765 767 768 769 769 769 768 767 765 762 761 759 755 753 750 746 742
650 652 665 663 669 674 676 684 689 695 700 704 709 714 718 723 728 732 736 739 743 747 751 755 758 762 764 766 767 767 768 768 767 767 765 763 762 760 757 753 749 745 743 740
653 650 652 665 673 681 683 687 696 703 708 713 716 718 722 727 732 735 738 742 746 750 754 757 760 763 765 766 767 767 767 767 766 765 763 762 760 758 754 751 747 743 739 736
661 661 664 669 678 685 688 694 699 708 712 716 720 724 727 730 734 738 742 745 748 752 755 758 761 763 765 766 766 766 766 766 765 764 762 760 758 755 752 748 745 741 737 733
662 676 677 680 683 688 691 696 700 707 714 718 723 726 730 734 738 742 746 749 751 754 757 760 762 764 765 766 766 766 765 765 764 762 761 759 756 753 750 747 744 740 735 731
649 656 663 665 676 686 696 701 705 710 715 720 725 729 734 737 741 745 748 750 754 757 759 761 763 765 766 766 766 765 765 764 762 760 758 756 753 751 748 745 742 738 733 729
654 660 668 675 682 689 697 704 709 714 719 723 728 733 736 740 743 747 750 752 756 758 762 763 765 766 766 766 765 765 763 761 759 758 756 754 751 748 746 743 740 736 732 727
663 667 672 680 687 691 700 707 712 717 722 726 731 735 740 743 746 749 752 755 758 760 763 764 765 765 765 765 764 763 762 760 759 757 754 752 749 746 744 741 738 734 729 725
668 672 677 684 693 699 704 709 714 721 726 729 732 737 741 745 749 751 754 757 761 762 763 764 764 765 765 764 763 761 759 757 756 754 751 749 746 744 741 738 734 731 726 722
671 675 682 689 696 704 710 714 719 723 728 732 736 739 743 748 752 754 757 758 761 762 763 764 764 765 764 762 760 759 757 755 753 751 749 747 744 742 738 734 730 726 723 718
675 681 687 695 702 707 714 719 723 727 731 735 738 742 746 750 753 755 758 761 762 763 763 763 764 763 762 760 758 756 755 753 751 749 747 744 742 738 734 730 726 723 718 714
680 688 694 701 706 711 719 726 729 732 735 739 743 746 748 751 755 757 759 762 763 763 763 763 763 762 760 758 757 755 753 751 748 746 744 741 738 734 730 726 722 719 715 711
688 694 700 706 711 719 724 729 733 738 741 745 748 751 753 754 755 759 761 762 763 762 762 762 761 760 758 756 754 752 751 749 746 743 740 737 733 729 726 722 719 715 712 708
694 701 707 711 716 723 728 732 736 741 744 748 752 754 755 756 758 760 762 763 763 762 761 760 759 758 756 754 752 750 748 745 742 739 737 733 729 725 722 718 715 711 708 704
703 707 713 720 725 728 731 735 738 743 747 749 752 756 757 759 761 762 763 763 762 762 761 759 758 756 754 752 750 747 745 741 739 736 732 729 725 722 718 715 712 708 704 700
Wind_Speed
20 24 15 13 21 23 16 8 13 4 16 30 14 12 13 11 12 14 14 14 14 14 12 17 20 25 27 26 24 22 20 17 14 11 8 5 2 2 3 6 9 13 16 19
6 18 16 16 21 18 14 8 6 10 16 19 3 7 8 13 15 15 16 15 14 13 13 15 21 24 28 27 24 22 19 16 13 10 6 4 1 2 5 8 12 16 18 19
4 9 9 8 20 17 6 10 14 14 20 4 4 6 7 10 15 17 16 15 16 15 14 19 23 30 29 27 23 20 18 14 11 8 5 2 1 4 7 11 15 17 19 20
2 1 2 2 20 23 22 18 21 7 5 3 6 5 7 4 7 10 13 13 12 11 16 21 26 28 29 26 22 19 17 14 10 7 4 1 2 5 8 13 16 17 19 20
3 2 4 2 6 9 13 9 5 6 6 7 7 5 7 8 3 4 8 9 12 19 23 27 29 30 28 24 21 19 15 12 9 5 2 1 4 7 11 15 17 18 20 21
3 2 2 3 1 1 0 3 4 7 11 11 5 4 3 5 5 12 10 16 20 24 27 29 28 30 27 23 20 17 14 10 7 4 1 3 6 9 13 15 16 18 21 21
2 2 7 5 1 1 3 5 1 6 9 6 5 1 8 6 10 11 15 21 25 24 24 28 29 27 25 21 17 14 12 9 5 2 2 5 7 11 14 16 18 21 22 23
3 2 5 1 1 2 3 2 2 4 5 10 13 14 11 10 10 12 14 17 22 23 23 25 24 24 22 19 15 13 10 7 5 2 3 6 9 13 15 16 19 21 23 24
7 5 1 3 1 2 1 3 3 6 10 17 16 12 11 9 10 9 14 17 20 23 24 20 20 21 20 17 14 11 9 6 3 2 4 7 11 13 16 19 19 22 21 19
1 1 2 2 2 3 3 4 7 11 13 14 18 12 11 10 9 9 13 16 21 23 20 18 17 16 17 15 12 9 7 4 2 3 6 9 9 13 16 17 19 20 17 17
5 2 1 2 1 5 8 10 11 9 10 13 16 11 11 9 9 9 14 17 21 21 20 19 18 17 15 13 10 9 6 3 3 5 7 10 12 14 15 16 16 19 20 20
6 7 5 4 7 8 12 10 11 15 10 7 10 13 10 8 9 13 15 19 19 20 21 19 18 16 12 9 8 6 4 2 3 6 9 11 15 19 18 13 16 16 17 19
4 5 3 7 7 3 11 10 9 11 12 12 8 11 9 8 9 16 19 20 21 22 20 19 16 14 11 8 6 4 3 3 6 8 10 13 15 17 17 22 16 17 18 19
9 11 7 2 6 9 15 13 15 13 13 12 14 15 16 13 16 17 16 18 21 20 18 17 15 12 9 6 4 3 3 4 7 9 11 13 14 16 18 16 16 18 18 19
4 3 8 14 14 12 13 15 14 11 10 9 13 14 15 11 10 15 18 20 21 19 17 15 14 12 8 5 3 2 4 6 9 11 11 11 14 17 18 17 16 18 20 18
8 10 13 16 15 13 14 13 15 10 9 8 8 12 16 21 21 20 20 22 21 16 15 14 12 10 5 3 2 3 5 9 9 11 12 14 16 18 17 16 16 17 18 19
16 7 10 11 13 12 12 10 12 11 9 9 12 20 22 21 20 19 16 14 15 15 13 12 11 7 3 2 3 6 8 9 10 12 13 13 16 15 15 15 15 16 18 20
7 8 7 17 18 15 12 10 10 13 11 17 21 21 18 14 11 16 17 18 17 14 11 9 7 4 2 3 5 7 8 11 12 13 13 15 15 17 17 16 15 17 19 21
11 14 14 14 14 13 13 11 12 17 19 21 19 14 16 18 20 19 18 17 14 13 9 7 4 3 2 3 5 7 10 12 12 12 13 13 16 17 16 15 16 17 19 20
13 13 17 14 20 21 13 16 20 18 20 23 22 18 16 18 20 18 15 12 8 9 9 5 3 2 2 5 5 9 11 11 12 13 14 14 16 15 17 16 17 18 18 19
15 16 17 17 13 19 19 21 22 18 21 23 19 16 18 19 18 20 19 12 9 7 5 3 1 2 6 6 9 11 10 10 12 13 15 17 19 18 17 19 20 18 19 19
14 15 16 18 17 17 21 23 24 24 22 22 23 24 23 19 17 14 10 14 9 5 4 3 2 4 6 6 10 10 11 12 13 15 17 18 18 18 21 23 22 20 19 22
12 17 20 19 17 19 24 24 23 24 23 23 23 23 21 19 19 16 8 8 6 4 3 3 4 4 4 8 10 11 12 14 16 18 17 18 18 22 21 24 21 21 21 20
19 20 21 23 25 23 13 17 23 23 24 22 22 22 23 21 16 13 14 9 6 3 3 4 4 5 7 10 11 12 13 16 17 16 18 19 21 22 23 22 20 20 22 21
21 22 23 21 15 12 20 24 26 25 25 23 19 16 15 9 8 12 9 8 5 3 3 4 6 7 10 11 12 13 16 16 17 18 21 21 23 23 22 23 22 21 22 24
21 16 15 17 19 21 21 19 18 17 20 19 19 17 16 15 13 11 8 5 3 3 5 7 9 10 11 13 13 16 16 19 20 21 18 21 22 22 22 22 22 22 23 24
20 21 20 18 17 18 19 20 20 16 17 19 20 14 14 12 10 8 6 4 4 5 7 9 11 12 14 14 16 17 19 19 18 17 19 19 20 20 20 21 22 23 24 24
Wind_Direction
241 256 248 210 192 194 193 179 200 232 221 261 231 175 172 152 144 150 159 163 164 158 155 152 148 154 161 158 159 160 158 157 156 155 154 145 115 40 3 354 354 349 347 344
255 225 219 183 186 191 195 193 257 275 279 242 133 98 132 159 157 163 170 169 164 158 153 155 153 152 158 160 160 163 161 159 157 157 154 147 99 5 354 356 350 349 350 348
350 140 130 159 174 181 175 210 197 219 236 151 86 103 149 160 170 173 172 164 162 161 159 153 152 159 159 161 161 162 159 156 157 158 159 152 33 358 356 353 349 347 348 349
353 109 64 47 171 179 207 199 219 198 101 120 125 94 63 16 169 158 159 153 149 143 137 144 154 159 158 159 159 158 156 156 158 161 160 118 5 355 351 349 348 347 346 345
12 307 289 42 100 165 194 230 181 160 107 112 141 98 29 14 56 113 130 129 131 139 139 144 151 156 154 155 156 155 154 155 159 160 148 19 350 351 352 344 342 342 341 341
13 30 21 267 355 23 128 283 169 149 156 159 173 114 244 18 77 91 91 109 115 122 130 138 147 154 152 153 153 153 154 154 156 154 120 359 351 350 346 341 336 337 338 344
15 316 288 258 298 33 118 242 155 159 173 149 131 198 124 99 72 84 100 106 113 119 126 141 151 153 147 149 149 149 151 152 152 137 33 355 349 346 342 341 339 340 342 345
156 233 282 308 351 183 219 27 67 97 111 94 108 101 101 101 98 101 102 99 110 111 123 143 149 149 144 143 146 150 151 150 142 100 15 356 347 343 346 344 341 344 345 343
184 212 248 324 308 45 110 117 98 105 120 124 118 116 115 113 105 99 104 105 115 120 129 139 146 147 141 145 150 151 149 137 109 38 16 356 352 348 345 346 347 345 341 333
125 14 166 174 30 54 73 97 98 115 124 128 124 124 117 115 114 110 110 113 122 122 122 130 142 147 145 147 153 151 137 120 74 27 356 350 354 355 348 349 345 340 333 326
273 289 68 246 179 128 92 101 94 77 108 123 121 119 124 120 116 119 118 124 133 130 132 137 142 141 144 148 150 139 130 104 38 0 345 349 354 356 353 349 339 333 330 330
219 207 169 201 154 138 125 125 122 119 100 83 121 122 123 120 124 127 128 138 135 138 138 141 143 140 140 140 143 132 111 58 5 347 350 349 349 347 352 343 335 333 333 334
203 115 67 108 104 74 114 120 112 109 120 117 96 116 115 115 114 128 139 146 147 150 148 147 142 137 138 136 129 114 92 19 357 351 347 346 348 347 335 340 335 337 338 335
123 106 71 140 146 118 112 105 96 88 91 103 108 102 110 109 121 126 137 151 153 147 147 146 141 137 138 135 126 98 38 11 356 350 348 347 343 338 337 326 325 329 334 332
22 37 117 115 108 107 112 113 102 103 106 93 103 114 119 116 118 126 136 140 141 140 141 145 143 138 141 134 109 54 17 4 353 348 345 337 339 339 338 333 325 323 325 329
78 91 113 118 122 124 120 117 118 121 118 113 112 112 120 125 126 130 135 141 139 142 145 145 142 139 136 123 73 25 10 359 352 341 342 343 341 339 338 334 327 324 322 326
113 95 110 120 136 136 132 130 131 132 124 124 125 128 125 122 121 126 132 141 138 136 141 142 138 138 133 91 20 9 357 353 347 343 343 340 338 340 338 330 324 322 321 326
90 97 119 143 143 133 123 121 125 130 132 132 133 131 127 129 133 132 133 131 126 121 126 131 132 130 103 42 5 351 345 342 344 343 339 342 341 336 339 332 323 322 322 325
118 119 121 123 127 124 126 125 123 125 131 135 132 132 139 138 140 139 136 132 131 126 126 125 125 107 72 27 348 339 338 340 340 341 342 338 337 342 339 329 324 322 321 323
106 110 112 112 121 127 120 122 127 126 134 135 129 123 122 135 138 134 134 115 123 133 135 131 118 89 23 350 342 337 341 344 344 342 343 338 341 336 330 327 326 322 320 320
124 124 121 119 111 112 120 130 129 126 134 137 131 128 128 134 136 135 123 108 116 126 133 135 113 38 2 346 334 342 348 349 346 344 340 339 335 333 327 326 326 321 319 318
132 126 121 122 120 109 118 127 128 130 132 130 131 128 126 127 131 118 119 130 131 138 125 99 62 6 350 321 339 350 349 347 345 341 338 336 332 332 329 329 324 318 316 316
124 122 120 120 122 115 118 125 129 133 128 133 133 135 131 134 135 126 120 131 124 110 99 74 24 0 337 340 348 350 349 348 343 338 334 331 327 325 327 327 321 317 318 317
119 115 110 116 118 114 107 112 127 129 130 132 135 139 138 124 104 110 117 115 108 102 81 39 10 5 347 348 349 349 348 342 336 333 326 320 322 326 327 326 320 316 316 321
115 118 122 122 114 112 119 124 120 122 122 121 122 125 129 127 129 130 126 119 103 86 47 23 10 1 352 351 346 343 338 334 332 324 321 324 324 324 322 322 323 323 317 318
124 121 116 120 128 133 133 132 125 127 122 111 114 116 113 113 118 122 118 112 91 45 20 9 3 354 349 344 339 334 332 331 330 328 324 322 323 324 326 326 325 327 324 322
105 112 113 110 119 132 136 135 130 129 132 129 120 122 120 119 117 116 108 87 54 27 10 1 355 349 342 339 333 332 332 333 331 327 323 327 330 330 330 330 329 327 326 325